TLPC

Details ICAO TLPC (SLU)
Name George F. L. Charles Airport
Region Saint Lucia
Timezone America/St_Lucia (UTC-4.0)
Plans Departing 106
Arriving 156
Stats Elevation 21 ft / 6 m (AMSL)
Location 14.020000° -60.992900°
Runways 1
Magnetic Variation 15.155° W
Sunrise 2020-05-27 09:36:29 UTC / 2020-05-27 05:36:29 Local
Sunset 2020-05-27 22:28:48 UTC / 2020-05-27 18:28:48 Local
Advertisement - Login to hide

Runways

ID Width Length Bearing (true/mag) Surface Threshold Overrun Markings Lighting
09 148 ft / 45 m 6,233 ft / 1,900 m 74.85° / 90.00° ASPHALT 423 ft / 129 m 0 ft / 0 m APP EDGE THRESHOLD
27 148 ft / 45 m 6,233 ft / 1,900 m 254.85° / 270.01° ASPHALT 866 ft / 264 m 0 ft / 0 m APP EDGE THRESHOLD

Map

Weather


0- 5 10 15 20 25 30 35+ Temperature / °C

Clouds and Precipitation
Forecast for 2020-05-28 00:00 UTC. Updated 4 hours ago

Ground ~20,000 ft ~40,000 ft Winds

METAR

Not found

TAF

TAF TLPC 272300Z 2800/2824 12009KT 9999 SCT026

Frequencies

Approach 119.80 MHz Castries Approach
Tower 118.00 MHz Castries Tower
Ground 121.90 MHz Castries Ground Control
Warning: Do not use this data for real-world aviation or navigation. No guarantee of current accuracy is given.